Time,TemperatureF,DewpointF,PressureIn,WindDirection,WindDirectionDegrees,WindSpeedMPH,WindSpeedGustMPH,Humidity,HourlyPrecipIn,Conditions,Clouds,dailyrainin,SoftwareType,DateUTC
2013-04-03 00:11:00,51.0,48.2,29.96,North,0,0.0,0.0,90,0.24,,,0.00,WUHU216HW,2013-04-03 05:11:00,
2013-04-03 00:16:00,51.0,48.2,29.95,North,0,0.0,0.0,90,0.26,,,0.00,WUHU216HW,2013-04-03 05:16:00,
2013-04-03 00:21:00,51.0,48.2,29.94,North,0,0.0,0.0,90,0.26,,,0.02,WUHU216HW,2013-04-03 05:21:00,
2013-04-03 00:27:00,51.4,48.5,29.94,North,0,0.0,0.0,90,0.14,,,0.02,WUHU216HW,2013-04-03 05:27:00,
2013-04-03 00:32:00,51.4,48.5,29.93,North,0,0.0,0.0,90,0.16,,,0.04,WUHU216HW,2013-04-03 05:32:00,
2013-04-03 00:37:00,51.6,48.7,29.91,North,0,0.0,0.0,90,0.14,,,0.09,WUHU216HW,2013-04-03 05:37:00,
2013-04-03 00:42:00,51.4,48.5,29.91,North,0,0.0,0.0,90,0.16,,,0.11,WUHU216HW,2013-04-03 05:42:00,
2013-04-03 00:47:00,51.4,48.5,29.92,North,0,0.0,0.0,90,0.16,,,0.11,WUHU216HW,2013-04-03 05:47:00,
2013-04-03 00:52:00,51.6,48.7,29.92,North,0,0.0,0.0,90,0.14,,,0.12,WUHU216HW,2013-04-03 05:52:00,
2013-04-03 00:57:00,51.9,49.1,29.91,North,0,0.0,0.0,90,0.16,,,0.14,WUHU216HW,2013-04-03 05:57:00,
2013-04-03 01:02:00,51.9,49.1,29.91,North,0,0.0,0.0,90,0.19,,,0.16,WUHU216HW,2013-04-03 06:02:00,
2013-04-03 01:07:00,52.3,49.4,29.90,North,0,0.0,0.0,90,0.19,,,0.19,WUHU216HW,2013-04-03 06:07:00,
2013-04-03 01:12:00,52.7,49.8,29.87,North,0,0.0,0.0,90,0.22,,,0.23,WUHU216HW,2013-04-03 06:12:00,
2013-04-03 01:17:00,52.8,50.0,29.85,North,0,0.0,0.0,90,0.22,,,0.23,WUHU216HW,2013-04-03 06:17:00,
2013-04-03 01:22:00,53.2,50.3,29.86,North,0,0.0,0.0,90,0.22,,,0.25,WUHU216HW,2013-04-03 06:22:00,
2013-04-03 01:27:00,53.4,50.5,29.89,North,0,0.0,0.0,90,0.22,,,0.25,WUHU216HW,2013-04-03 06:27:00,
2013-04-03 01:32:00,53.2,50.3,29.88,North,0,0.0,0.0,90,0.22,,,0.25,WUHU216HW,2013-04-03 06:32:00,
2013-04-03 01:37:00,53.2,50.3,29.87,North,0,0.0,0.0,90,0.22,,,0.25,WUHU216HW,2013-04-03 06:37:00,
2013-04-03 01:43:00,53.2,50.3,29.88,North,0,0.0,0.0,90,0.22,,,0.25,WUHU216HW,2013-04-03 06:43:00,
2013-04-03 01:48:00,53.2,50.3,29.88,North,0,0.0,0.0,90,0.22,,,0.25,WUHU216HW,2013-04-03 06:48:00,
2013-04-03 01:55:00,53.2,50.3,29.90,North,0,0.0,0.0,90,0.22,,,0.25,WUHU216HW,2013-04-03 06:55:00,
2013-04-03 02:00:00,53.2,50.3,29.90,North,0,0.0,0.0,90,0.22,,,0.25,WUHU216HW,2013-04-03 07:00:00,
2013-04-03 02:05:00,53.4,50.5,29.87,North,0,0.0,0.0,90,0.22,,,0.25,WUHU216HW,2013-04-03 07:05:00,
2013-04-03 02:10:00,53.4,50.5,29.89,North,0,0.0,0.0,90,0.22,,,0.25,WUHU216HW,2013-04-03 07:10:00,
2013-04-03 02:16:00,53.4,50.5,29.88,North,0,0.0,0.0,90,0.22,,,0.25,WUHU216HW,2013-04-03 07:16:00,
2013-04-03 02:21:00,53.2,50.3,29.86,North,0,0.0,0.0,90,0.22,,,0.25,WUHU216HW,2013-04-03 07:21:00,
2013-04-03 02:26:00,53.2,50.3,29.83,North,0,0.0,0.0,90,0.00,,,0.25,WUHU216HW,2013-04-03 07:26:00,
2013-04-03 02:31:00,53.2,50.3,29.84,North,0,0.0,0.0,90,0.00,,,0.25,WUHU216HW,2013-04-03 07:31:00,
2013-04-03 02:36:00,53.2,50.3,29.84,North,0,0.0,0.0,90,0.00,,,0.25,WUHU216HW,2013-04-03 07:36:00,
2013-04-03 02:41:00,53.2,50.3,29.85,North,0,0.0,0.0,90,0.00,,,0.25,WUHU216HW,2013-04-03 07:41:00,
2013-04-03 02:46:00,53.4,50.5,29.85,North,0,0.0,0.0,90,0.00,,,0.25,WUHU216HW,2013-04-03 07:46:00,
2013-04-03 02:52:00,53.4,50.5,29.84,North,0,0.0,0.0,90,0.00,,,0.25,WUHU216HW,2013-04-03 07:52:00,
2013-04-03 02:57:00,53.4,50.5,29.84,North,0,0.0,0.0,90,0.00,,,0.25,WUHU216HW,2013-04-03 07:57:00,
2013-04-03 03:14:00,53.4,50.5,29.84,North,0,0.0,0.0,90,0.00,,,0.25,WUHU216HW,2013-04-03 08:14:00,
2013-04-03 03:19:00,53.4,50.5,29.84,North,0,0.0,0.0,90,0.00,,,0.25,WUHU216HW,2013-04-03 08:19:00,
2013-04-03 03:24:00,53.4,50.5,29.84,North,0,0.0,0.0,90,0.00,,,0.25,WUHU216HW,2013-04-03 08:24:00,
2013-04-03 03:29:00,53.2,50.3,29.85,North,0,0.0,0.0,90,0.00,,,0.25,WUHU216HW,2013-04-03 08:29:00,
2013-04-03 03:34:00,53.2,50.3,29.84,North,0,0.0,0.0,90,0.00,,,0.25,WUHU216HW,2013-04-03 08:34:00,
2013-04-03 03:39:00,53.2,50.3,29.84,North,0,0.0,0.0,90,0.00,,,0.25,WUHU216HW,2013-04-03 08:39:00,
2013-04-03 03:44:00,53.2,50.3,29.83,North,0,0.0,0.0,90,0.00,,,0.25,WUHU216HW,2013-04-03 08:44:00,
2013-04-03 03:49:00,53.2,50.3,29.84,North,0,0.0,0.0,90,0.00,,,0.25,WUHU216HW,2013-04-03 08:49:00,
2013-04-03 03:54:00,53.0,50.1,29.85,North,0,0.0,0.0,90,0.00,,,0.25,WUHU216HW,2013-04-03 08:54:00,
2013-04-03 03:59:00,53.0,50.1,29.85,North,0,0.0,0.0,90,0.00,,,0.25,WUHU216HW,2013-04-03 08:59:00,
2013-04-03 04:04:00,52.8,50.0,29.85,North,0,0.0,0.0,90,0.00,,,0.25,WUHU216HW,2013-04-03 09:04:00,
2013-04-03 04:09:00,53.0,50.1,29.85,North,0,0.0,0.0,90,0.00,,,0.25,WUHU216HW,2013-04-03 09:09:00,
2013-04-03 04:14:00,52.8,50.0,29.86,North,0,0.0,0.0,90,0.00,,,0.25,WUHU216HW,2013-04-03 09:14:00,
2013-04-03 04:19:00,53.0,50.1,29.86,North,0,0.0,0.0,90,0.00,,,0.25,WUHU216HW,2013-04-03 09:19:00,
2013-04-03 04:24:00,53.2,50.3,29.87,North,0,0.0,0.0,90,0.00,,,0.25,WUHU216HW,2013-04-03 09:24:00,
2013-04-03 04:29:00,53.2,50.3,29.87,North,0,0.0,0.0,90,0.00,,,0.25,WUHU216HW,2013-04-03 09:29:00,
2013-04-03 04:34:00,53.2,50.3,29.87,North,0,0.0,0.0,90,0.00,,,0.25,WUHU216HW,2013-04-03 09:34:00,
2013-04-03 04:39:00,53.4,50.5,29.88,North,0,0.0,0.0,90,0.00,,,0.25,WUHU216HW,2013-04-03 09:39:00,
2013-04-03 04:44:00,53.4,50.5,29.88,North,0,0.0,0.0,90,0.00,,,0.25,WUHU216HW,2013-04-03 09:44:00,
2013-04-03 04:49:00,53.6,50.7,29.88,North,0,0.0,0.0,90,0.00,,,0.25,WUHU216HW,2013-04-03 09:49:00,
2013-04-03 04:54:00,53.7,50.9,29.89,North,0,0.0,0.0,90,0.00,,,0.25,WUHU216HW,2013-04-03 09:54:00,
2013-04-03 04:59:00,53.9,51.0,29.89,North,0,0.0,0.0,90,0.00,,,0.25,WUHU216HW,2013-04-03 09:59:00,
2013-04-03 05:04:00,53.9,51.0,29.88,North,0,0.0,0.0,90,0.00,,,0.25,WUHU216HW,2013-04-03 10:04:00,
2013-04-03 05:09:00,53.9,51.0,29.89,North,0,0.0,0.0,90,0.00,,,0.25,WUHU216HW,2013-04-03 10:09:00,
2013-04-03 05:14:00,53.7,50.9,29.89,North,0,0.0,0.0,90,0.00,,,0.25,WUHU216HW,2013-04-03 10:14:00,
2013-04-03 05:19:00,53.7,50.9,29.89,North,0,0.0,0.0,90,0.00,,,0.25,WUHU216HW,2013-04-03 10:19:00,
2013-04-03 05:24:00,53.7,50.9,29.89,North,0,0.0,0.0,90,0.00,,,0.25,WUHU216HW,2013-04-03 10:24:00,
2013-04-03 05:30:00,53.7,50.9,29.89,North,0,0.0,0.0,90,0.00,,,0.25,WUHU216HW,2013-04-03 10:30:00,
2013-04-03 05:35:00,53.7,50.9,29.89,North,0,0.0,0.0,90,0.00,,,0.25,WUHU216HW,2013-04-03 10:35:00,
2013-04-03 05:40:00,53.7,50.9,29.89,North,0,0.0,0.0,90,0.00,,,0.25,WUHU216HW,2013-04-03 10:40:00,
2013-04-03 05:45:00,53.7,50.9,29.89,North,0,0.0,0.0,90,0.00,,,0.25,WUHU216HW,2013-04-03 10:45:00,
2013-04-03 05:50:00,53.9,51.0,29.89,North,0,0.0,0.0,90,0.00,,,0.25,WUHU216HW,2013-04-03 10:50:00,
2013-04-03 05:55:00,53.9,51.0,29.90,North,0,0.0,0.0,90,0.00,,,0.25,WUHU216HW,2013-04-03 10:55:00,
2013-04-03 06:00:00,53.9,51.0,29.90,North,0,0.0,0.0,90,0.00,,,0.25,WUHU216HW,2013-04-03 11:00:00,
2013-04-03 06:05:00,53.7,50.9,29.90,North,0,0.0,0.0,90,0.00,,,0.25,WUHU216HW,2013-04-03 11:05:00,
2013-04-03 06:10:00,53.7,50.9,29.91,North,0,0.0,0.0,90,0.00,,,0.25,WUHU216HW,2013-04-03 11:10:00,
2013-04-03 06:15:00,53.7,50.9,29.91,North,0,0.0,0.0,90,0.00,,,0.25,WUHU216HW,2013-04-03 11:15:00,
2013-04-03 06:20:00,53.4,50.8,29.91,North,0,0.0,0.0,91,0.00,,,0.25,WUHU216HW,2013-04-03 11:20:00,
2013-04-03 06:25:00,53.4,50.8,29.91,North,0,0.0,0.0,91,0.00,,,0.25,WUHU216HW,2013-04-03 11:25:00,
2013-04-03 06:30:00,53.4,50.8,29.91,North,0,0.0,0.0,91,0.00,,,0.25,WUHU216HW,2013-04-03 11:30:00,
2013-04-03 06:42:00,53.2,50.6,29.92,North,0,0.0,0.0,90,0.00,,,0.25,WUHU216HW,2013-04-03 11:42:00,
2013-04-03 07:12:00,49.8,46.9,29.93,North,0,0.0,0.0,90,0.00,,,0.25,WUHU216HW,2013-04-03 12:12:00,
2013-04-03 07:17:00,49.6,46.7,29.93,North,0,0.0,0.0,90,0.00,,,0.25,WUHU216HW,2013-04-03 12:17:00,
2013-04-03 07:22:00,49.4,46.6,29.93,North,0,0.0,0.0,91,0.00,,,0.25,WUHU216HW,2013-04-03 12:22:00,
2013-04-03 07:27:00,49.2,46.7,29.94,North,0,0.0,0.0,91,0.00,,,0.25,WUHU216HW,2013-04-03 12:27:00,
2013-04-03 07:32:00,48.9,46.4,29.94,North,0,0.0,0.0,91,0.00,,,0.25,WUHU216HW,2013-04-03 12:32:00,
2013-04-03 07:37:00,48.9,46.4,29.94,North,0,0.0,0.0,91,0.00,,,0.25,WUHU216HW,2013-04-03 12:37:00,
2013-04-03 07:42:00,48.7,46.2,29.94,North,0,0.0,0.0,91,0.00,,,0.25,WUHU216HW,2013-04-03 12:42:00,
2013-04-03 07:47:00,48.7,46.2,29.95,North,0,0.0,0.0,91,0.00,,,0.25,WUHU216HW,2013-04-03 12:47:00,
2013-04-03 07:52:00,48.5,46.0,29.95,North,0,0.0,0.0,91,0.00,,,0.25,WUHU216HW,2013-04-03 12:52:00,
2013-04-03 07:57:00,48.7,46.2,29.95,North,0,0.0,0.0,91,0.00,,,0.25,WUHU216HW,2013-04-03 12:57:00,
2013-04-03 08:02:00,48.7,46.2,29.95,North,0,0.0,0.0,91,0.00,,,0.25,WUHU216HW,2013-04-03 13:02:00,
2013-04-03 08:07:00,48.7,46.2,29.95,North,0,0.0,0.0,91,0.00,,,0.25,WUHU216HW,2013-04-03 13:07:00,
2013-04-03 08:12:00,48.5,46.0,29.95,North,0,0.0,0.0,91,0.00,,,0.25,WUHU216HW,2013-04-03 13:12:00,
2013-04-03 08:17:00,48.3,45.9,29.96,North,0,0.0,0.0,91,0.00,,,0.25,WUHU216HW,2013-04-03 13:17:00,
2013-04-03 08:22:00,48.3,45.9,29.96,North,0,0.0,0.0,91,0.00,,,0.25,WUHU216HW,2013-04-03 13:22:00,
2013-04-03 08:27:00,48.5,46.0,29.97,North,0,0.0,0.0,91,0.00,,,0.25,WUHU216HW,2013-04-03 13:27:00,
2013-04-03 08:32:00,48.5,46.0,29.97,North,0,0.0,0.0,91,0.00,,,0.25,WUHU216HW,2013-04-03 13:32:00,
2013-04-03 08:37:00,48.7,46.2,29.97,North,0,0.0,0.0,91,0.00,,,0.25,WUHU216HW,2013-04-03 13:37:00,
2013-04-03 08:42:00,48.7,46.2,29.98,North,0,0.0,0.0,91,0.00,,,0.25,WUHU216HW,2013-04-03 13:42:00,
2013-04-03 08:48:00,48.7,46.2,29.98,North,0,0.0,0.0,91,0.00,,,0.25,WUHU216HW,2013-04-03 13:48:00,
2013-04-03 08:57:00,48.7,46.2,29.97,North,0,0.0,0.0,91,0.00,,,0.25,WUHU216HW,2013-04-03 13:57:00,
2013-04-03 09:02:00,48.7,46.2,29.97,North,0,0.0,0.0,91,0.00,,,0.25,WUHU216HW,2013-04-03 14:02:00,
2013-04-03 09:07:00,48.9,46.4,29.97,North,0,0.0,0.0,91,0.00,,,0.25,WUHU216HW,2013-04-03 14:07:00,
2013-04-03 09:12:00,48.7,46.2,29.98,North,0,0.0,0.0,91,0.00,,,0.25,WUHU216HW,2013-04-03 14:12:00,
2013-04-03 09:17:00,48.9,46.4,29.99,North,0,0.0,0.0,91,0.00,,,0.25,WUHU216HW,2013-04-03 14:17:00,
2013-04-03 09:22:00,49.1,46.5,29.99,North,0,0.0,0.0,91,0.00,,,0.25,WUHU216HW,2013-04-03 14:22:00,
2013-04-03 09:27:00,49.1,46.5,29.99,North,0,0.0,0.0,91,0.00,,,0.25,WUHU216HW,2013-04-03 14:27:00,
2013-04-03 09:32:00,49.2,46.7,29.99,North,0,0.0,0.0,91,0.00,,,0.25,WUHU216HW,2013-04-03 14:32:00,
2013-04-03 09:37:00,49.1,46.5,30.00,North,0,0.0,0.0,91,0.00,,,0.25,WUHU216HW,2013-04-03 14:37:00,
2013-04-03 09:42:00,49.1,46.5,30.01,North,0,0.0,0.0,91,0.00,,,0.25,WUHU216HW,2013-04-03 14:42:00,
2013-04-03 09:47:00,49.1,46.5,30.02,North,0,0.0,0.0,91,0.00,,,0.25,WUHU216HW,2013-04-03 14:47:00,
2013-04-03 09:52:00,49.1,46.5,30.02,North,0,0.0,0.0,91,0.00,,,0.25,WUHU216HW,2013-04-03 14:52:00,
2013-04-03 09:58:00,48.9,46.4,30.03,North,0,0.0,0.0,91,0.00,,,0.25,WUHU216HW,2013-04-03 14:58:00,
2013-04-03 10:03:00,48.7,46.2,30.02,North,0,0.0,0.0,91,0.02,,,0.27,WUHU216HW,2013-04-03 15:03:00,
2013-04-03 10:08:00,48.7,46.2,30.00,North,0,0.0,0.0,91,0.02,,,0.27,WUHU216HW,2013-04-03 15:08:00,
2013-04-03 10:13:00,48.7,46.2,30.00,North,0,0.0,0.0,91,0.04,,,0.29,WUHU216HW,2013-04-03 15:13:00,
2013-04-03 10:18:00,48.7,46.2,30.02,North,0,0.0,0.0,91,0.04,,,0.29,WUHU216HW,2013-04-03 15:18:00,
2013-04-03 10:23:00,48.7,46.2,30.02,North,0,0.0,0.0,91,0.06,,,0.31,WUHU216HW,2013-04-03 15:23:00,
2013-04-03 10:28:00,48.7,46.2,30.03,North,0,0.0,0.0,91,0.06,,,0.31,WUHU216HW,2013-04-03 15:28:00,
2013-04-03 10:33:00,48.7,46.2,30.03,North,0,0.0,0.0,91,0.06,,,0.31,WUHU216HW,2013-04-03 15:33:00,
2013-04-03 10:38:00,48.7,46.2,30.00,North,0,0.0,0.0,91,0.08,,,0.33,WUHU216HW,2013-04-03 15:38:00,
2013-04-03 10:43:00,48.9,46.4,29.99,North,0,0.0,0.0,91,0.10,,,0.35,WUHU216HW,2013-04-03 15:43:00,
2013-04-03 10:48:00,48.9,46.4,29.97,North,0,0.0,0.0,91,0.10,,,0.35,WUHU216HW,2013-04-03 15:48:00,
2013-04-03 10:53:00,48.9,46.4,29.96,North,0,0.0,0.0,91,0.10,,,0.35,WUHU216HW,2013-04-03 15:53:00,
2013-04-03 10:58:00,48.9,46.4,29.94,North,0,0.0,0.0,91,0.10,,,0.35,WUHU216HW,2013-04-03 15:58:00,
2013-04-03 11:03:00,48.9,46.4,29.94,North,0,0.0,0.0,91,0.10,,,0.35,WUHU216HW,2013-04-03 16:03:00,
2013-04-03 11:08:00,49.1,46.5,29.96,North,0,0.0,0.0,91,0.10,,,0.37,WUHU216HW,2013-04-03 16:08:00,
2013-04-03 11:13:00,49.6,47.0,29.96,North,0,0.0,0.0,91,0.10,,,0.37,WUHU216HW,2013-04-03 16:13:00,
2013-04-03 11:18:00,49.6,47.0,29.96,North,0,0.0,0.0,91,0.10,,,0.37,WUHU216HW,2013-04-03 16:18:00,
2013-04-03 11:23:00,49.6,47.0,29.97,North,0,0.0,0.0,91,0.06,,,0.37,WUHU216HW,2013-04-03 16:23:00,
2013-04-03 11:28:00,49.6,47.0,29.98,North,0,0.0,0.0,91,0.06,,,0.37,WUHU216HW,2013-04-03 16:28:00,
2013-04-03 11:33:00,49.2,46.7,29.98,North,0,0.0,0.0,91,0.06,,,0.37,WUHU216HW,2013-04-03 16:33:00,
2013-04-03 11:38:00,49.6,47.0,29.98,North,0,0.0,0.0,91,0.06,,,0.37,WUHU216HW,2013-04-03 16:38:00,
2013-04-03 11:43:00,49.4,46.9,29.98,North,0,0.0,0.0,91,0.06,,,0.37,WUHU216HW,2013-04-03 16:43:00,
2013-04-03 11:48:00,49.4,46.9,29.98,North,0,0.0,0.0,91,0.06,,,0.37,WUHU216HW,2013-04-03 16:48:00,
2013-04-03 11:53:00,49.1,46.5,29.98,North,0,0.0,0.0,91,0.06,,,0.37,WUHU216HW,2013-04-03 16:53:00,
2013-04-03 11:59:00,48.9,46.4,29.98,North,0,0.0,0.0,91,0.06,,,0.37,WUHU216HW,2013-04-03 16:59:00,
2013-04-03 12:04:00,48.7,46.2,29.97,North,0,0.0,0.0,91,0.06,,,0.37,WUHU216HW,2013-04-03 17:04:00,
2013-04-03 12:10:00,48.7,46.2,29.97,North,0,0.0,0.0,91,0.06,,,0.37,WUHU216HW,2013-04-03 17:10:00,
2013-04-03 12:15:00,48.7,46.2,29.99,North,0,0.0,0.0,91,0.06,,,0.37,WUHU216HW,2013-04-03 17:15:00,
2013-04-03 12:20:00,48.9,46.4,30.03,North,0,0.0,0.0,91,0.06,,,0.37,WUHU216HW,2013-04-03 17:20:00,
2013-04-03 12:25:00,48.9,46.4,30.05,North,0,0.0,0.0,91,0.00,,,0.37,WUHU216HW,2013-04-03 17:25:00,
2013-04-03 12:30:00,49.1,46.5,30.03,North,0,0.0,0.0,91,0.00,,,0.37,WUHU216HW,2013-04-03 17:30:00,
2013-04-03 12:35:00,48.9,46.4,30.00,North,0,0.0,0.0,91,0.00,,,0.37,WUHU216HW,2013-04-03 17:35:00,
2013-04-03 12:40:00,48.9,46.4,30.01,North,0,0.0,0.0,91,0.00,,,0.37,WUHU216HW,2013-04-03 17:40:00,
2013-04-03 12:45:00,48.7,46.2,30.01,North,0,0.0,0.0,91,0.00,,,0.37,WUHU216HW,2013-04-03 17:45:00,
2013-04-03 12:50:00,48.3,45.9,30.00,North,0,0.0,0.0,91,0.00,,,0.37,WUHU216HW,2013-04-03 17:50:00,
2013-04-03 12:55:00,48.5,46.0,29.99,North,0,0.0,0.0,91,0.00,,,0.37,WUHU216HW,2013-04-03 17:55:00,
2013-04-03 13:00:00,48.5,46.0,29.99,North,0,0.0,0.0,91,0.00,,,0.37,WUHU216HW,2013-04-03 18:00:00,
2013-04-03 13:19:00,48.2,45.7,29.96,North,0,0.0,0.0,91,0.02,,,0.39,WUHU216HW,2013-04-03 18:19:00,
2013-04-03 13:24:00,48.3,45.9,29.98,North,0,0.0,0.0,91,0.02,,,0.39,WUHU216HW,2013-04-03 18:24:00,
2013-04-03 13:29:00,48.3,45.9,29.98,North,0,0.0,0.0,91,0.02,,,0.39,WUHU216HW,2013-04-03 18:29:00,
2013-04-03 13:35:00,48.3,45.9,30.00,North,0,0.0,0.0,91,0.02,,,0.39,WUHU216HW,2013-04-03 18:35:00,
2013-04-03 13:40:00,48.3,45.9,30.00,North,0,0.0,0.0,91,0.02,,,0.39,WUHU216HW,2013-04-03 18:40:00,
2013-04-03 13:45:00,48.3,45.9,30.00,North,0,0.0,0.0,91,0.02,,,0.39,WUHU216HW,2013-04-03 18:45:00,
2013-04-03 13:50:00,48.3,45.9,29.99,North,0,0.0,0.0,91,0.02,,,0.39,WUHU216HW,2013-04-03 18:50:00,
2013-04-03 13:55:00,48.3,45.9,29.99,North,0,0.0,0.0,91,0.02,,,0.39,WUHU216HW,2013-04-03 18:55:00,
2013-04-03 14:00:00,48.3,45.9,30.01,North,0,0.0,0.0,91,0.02,,,0.39,WUHU216HW,2013-04-03 19:00:00,
2013-04-03 14:05:00,48.3,45.9,30.01,North,0,0.0,0.0,91,0.02,,,0.39,WUHU216HW,2013-04-03 19:05:00,
2013-04-03 14:10:00,48.3,45.9,30.00,North,0,0.0,0.0,91,0.02,,,0.41,WUHU216HW,2013-04-03 19:10:00,
2013-04-03 14:15:00,48.3,45.9,30.00,North,0,0.0,0.0,91,0.02,,,0.41,WUHU216HW,2013-04-03 19:15:00,
2013-04-03 14:20:00,48.0,45.5,29.98,North,0,0.0,0.0,91,0.02,,,0.41,WUHU216HW,2013-04-03 19:20:00,
2013-04-03 14:25:00,48.3,45.9,29.99,North,0,0.0,0.0,91,0.02,,,0.41,WUHU216HW,2013-04-03 19:25:00,
2013-04-03 14:30:00,48.3,45.9,29.99,North,0,0.0,0.0,91,0.02,,,0.41,WUHU216HW,2013-04-03 19:30:00,
2013-04-03 14:35:00,48.5,46.0,30.00,North,0,0.0,0.0,91,0.02,,,0.41,WUHU216HW,2013-04-03 19:35:00,
2013-04-03 14:40:00,48.3,45.9,29.97,North,0,0.0,0.0,91,0.04,,,0.43,WUHU216HW,2013-04-03 19:40:00,
2013-04-03 14:45:00,48.5,46.0,29.98,North,0,0.0,0.0,91,0.04,,,0.43,WUHU216HW,2013-04-03 19:45:00,
2013-04-03 14:50:00,48.3,45.9,29.97,North,0,0.0,0.0,91,0.04,,,0.43,WUHU216HW,2013-04-03 19:50:00,
2013-04-03 14:55:00,48.3,45.9,29.99,North,0,0.0,0.0,91,0.06,,,0.45,WUHU216HW,2013-04-03 19:55:00,
2013-04-03 15:00:00,48.5,46.0,29.99,North,0,0.0,0.0,91,0.06,,,0.45,WUHU216HW,2013-04-03 20:00:00,
2013-04-03 15:05:00,48.3,45.9,29.97,North,0,0.0,0.0,91,0.06,,,0.45,WUHU216HW,2013-04-03 20:05:00,
2013-04-03 15:10:00,48.7,46.2,29.98,North,0,0.0,0.0,91,0.06,,,0.47,WUHU216HW,2013-04-03 20:10:00,
2013-04-03 15:15:00,48.5,46.0,29.97,North,0,0.0,0.0,91,0.08,,,0.49,WUHU216HW,2013-04-03 20:15:00,
2013-04-03 15:20:00,48.2,45.7,29.98,North,0,0.0,0.0,91,0.08,,,0.49,WUHU216HW,2013-04-03 20:20:00,
2013-04-03 15:25:00,47.8,45.4,29.99,North,0,0.0,0.0,91,0.08,,,0.49,WUHU216HW,2013-04-03 20:25:00,
2013-04-03 15:30:00,47.8,45.4,30.00,North,0,0.0,0.0,91,0.08,,,0.49,WUHU216HW,2013-04-03 20:30:00,
2013-04-03 15:35:00,47.8,45.4,29.99,North,0,0.0,0.0,91,0.08,,,0.49,WUHU216HW,2013-04-03 20:35:00,
2013-04-03 15:40:00,47.8,45.4,29.97,North,0,0.0,0.0,91,0.08,,,0.49,WUHU216HW,2013-04-03 20:40:00,
2013-04-03 15:45:00,48.0,45.5,29.98,North,0,0.0,0.0,91,0.08,,,0.49,WUHU216HW,2013-04-03 20:45:00,
2013-04-03 15:50:00,47.8,45.4,29.97,North,0,0.0,0.0,91,0.08,,,0.49,WUHU216HW,2013-04-03 20:50:00,
2013-04-03 15:55:00,47.8,45.4,29.98,North,0,0.0,0.0,91,0.06,,,0.51,WUHU216HW,2013-04-03 20:55:00,
2013-04-03 16:00:00,47.8,45.4,29.98,North,0,0.0,0.0,91,0.06,,,0.51,WUHU216HW,2013-04-03 21:00:00,
2013-04-03 16:05:00,47.6,45.2,29.98,North,0,0.0,0.0,91,0.06,,,0.51,WUHU216HW,2013-04-03 21:05:00,
2013-04-03 16:10:00,47.8,45.4,29.98,North,0,0.0,0.0,91,0.06,,,0.51,WUHU216HW,2013-04-03 21:10:00,
2013-04-03 16:16:00,47.8,45.4,29.98,North,0,0.0,0.0,91,0.06,,,0.51,WUHU216HW,2013-04-03 21:16:00,
2013-04-03 16:21:00,47.8,45.4,29.99,North,0,0.0,0.0,91,0.06,,,0.51,WUHU216HW,2013-04-03 21:21:00,
2013-04-03 16:26:00,48.0,45.5,29.99,North,0,0.0,0.0,91,0.02,,,0.51,WUHU216HW,2013-04-03 21:26:00,
2013-04-03 16:31:00,48.0,45.5,29.99,North,0,0.0,0.0,91,0.02,,,0.51,WUHU216HW,2013-04-03 21:31:00,
2013-04-03 16:36:00,47.8,45.4,29.99,North,0,0.0,0.0,91,0.02,,,0.51,WUHU216HW,2013-04-03 21:36:00,
2013-04-03 16:41:00,47.8,45.4,29.99,North,0,0.0,0.0,91,0.02,,,0.51,WUHU216HW,2013-04-03 21:41:00,
2013-04-03 16:48:00,47.4,45.0,30.00,North,0,0.0,0.0,91,0.02,,,0.51,WUHU216HW,2013-04-03 21:48:00,
2013-04-03 16:50:00,47.4,45.0,30.00,North,0,0.0,0.0,91,0.02,,,0.51,WUHU216HW,2013-04-03 21:50:00,
2013-04-03 16:54:00,47.4,45.0,30.00,North,0,0.0,0.0,91,0.02,,,0.51,WUHU216HW,2013-04-03 21:54:00,
2013-04-03 17:29:00,47.4,45.0,30.01,North,0,0.0,0.0,91,0.00,,,0.51,WUHU216HW,2013-04-03 22:29:00,
2013-04-03 17:34:00,47.4,45.0,30.01,North,0,0.0,0.0,91,0.00,,,0.51,WUHU216HW,2013-04-03 22:34:00,
2013-04-03 17:39:00,47.4,45.0,30.01,North,0,0.0,0.0,91,0.00,,,0.51,WUHU216HW,2013-04-03 22:39:00,
2013-04-03 17:44:00,47.4,45.0,30.01,North,0,0.0,0.0,91,0.00,,,0.51,WUHU216HW,2013-04-03 22:44:00,
2013-04-03 17:49:00,47.4,45.0,30.01,North,0,0.0,0.0,91,0.00,,,0.51,WUHU216HW,2013-04-03 22:49:00,
2013-04-03 17:54:00,47.4,45.0,30.02,North,0,0.0,0.0,91,0.00,,,0.51,WUHU216HW,2013-04-03 22:54:00,
2013-04-03 17:59:00,47.4,45.0,30.02,North,0,0.0,0.0,91,0.00,,,0.51,WUHU216HW,2013-04-03 22:59:00,
2013-04-03 18:04:00,47.4,45.0,30.01,North,0,0.0,0.0,91,0.00,,,0.51,WUHU216HW,2013-04-03 23:04:00,
2013-04-03 18:09:00,47.8,45.4,30.01,North,0,0.0,0.0,91,0.00,,,0.51,WUHU216HW,2013-04-03 23:09:00,
2013-04-03 18:14:00,47.8,45.4,30.01,North,0,0.0,0.0,91,0.00,,,0.51,WUHU216HW,2013-04-03 23:14:00,
2013-04-03 18:19:00,47.8,45.4,30.01,North,0,0.0,0.0,91,0.00,,,0.51,WUHU216HW,2013-04-03 23:19:00,
2013-04-03 18:24:00,47.8,45.4,30.01,North,0,0.0,0.0,91,0.00,,,0.51,WUHU216HW,2013-04-03 23:24:00,
2013-04-03 18:29:00,47.8,45.4,30.01,North,0,0.0,0.0,91,0.00,,,0.51,WUHU216HW,2013-04-03 23:29:00,
2013-04-03 18:34:00,47.8,45.4,30.01,North,0,0.0,0.0,91,0.00,,,0.51,WUHU216HW,2013-04-03 23:34:00,
2013-04-03 18:39:00,47.8,45.4,30.02,North,0,0.0,0.0,91,0.00,,,0.51,WUHU216HW,2013-04-03 23:39:00,
2013-04-03 18:44:00,47.8,45.4,30.01,North,0,0.0,0.0,91,0.00,,,0.51,WUHU216HW,2013-04-03 23:44:00,
2013-04-03 18:49:00,47.3,44.8,30.02,North,0,0.0,0.0,91,0.00,,,0.51,WUHU216HW,2013-04-03 23:49:00,
2013-04-03 18:55:00,47.4,45.0,30.02,North,0,0.0,0.0,91,0.00,,,0.51,WUHU216HW,2013-04-03 23:55:00,
2013-04-03 19:00:00,47.4,45.0,30.02,North,0,0.0,0.0,91,0.00,,,0.51,WUHU216HW,2013-04-04 00:00:00,
2013-04-03 19:14:00,47.4,45.0,30.02,North,0,0.0,0.0,91,0.00,,,0.51,WUHU216HW,2013-04-04 00:14:00,
2013-04-03 19:19:00,47.4,45.0,30.03,North,0,0.0,0.0,91,0.00,,,0.51,WUHU216HW,2013-04-04 00:19:00,
2013-04-03 19:24:00,47.3,44.8,30.03,North,0,0.0,0.0,91,0.00,,,0.51,WUHU216HW,2013-04-04 00:24:00,
2013-04-03 19:29:00,47.3,44.8,30.03,North,0,0.0,0.0,91,0.00,,,0.51,WUHU216HW,2013-04-04 00:29:00,
2013-04-03 19:34:00,47.1,44.6,30.03,North,0,0.0,0.0,91,0.00,,,0.51,WUHU216HW,2013-04-04 00:34:00,
2013-04-03 19:39:00,47.1,44.6,30.03,North,0,0.0,0.0,91,0.00,,,0.51,WUHU216HW,2013-04-04 00:39:00,
2013-04-03 19:44:00,46.9,44.5,30.04,North,0,0.0,0.0,91,0.00,,,0.51,WUHU216HW,2013-04-04 00:44:00,
2013-04-03 19:49:00,46.9,44.5,30.04,North,0,0.0,0.0,91,0.00,,,0.51,WUHU216HW,2013-04-04 00:49:00,
2013-04-03 19:54:00,46.9,44.5,30.04,North,0,0.0,0.0,91,0.00,,,0.51,WUHU216HW,2013-04-04 00:54:00,
2013-04-03 19:59:00,46.9,44.5,30.04,North,0,0.0,0.0,91,0.00,,,0.51,WUHU216HW,2013-04-04 00:59:00,
2013-04-03 20:28:00,46.9,44.5,30.05,North,0,0.0,0.0,91,0.00,,,0.51,WUHU216HW,2013-04-04 01:28:00,
2013-04-03 20:33:00,46.9,44.5,30.05,North,0,0.0,0.0,91,0.00,,,0.51,WUHU216HW,2013-04-04 01:33:00,
2013-04-03 20:38:00,46.9,44.5,30.05,North,0,0.0,0.0,91,0.00,,,0.51,WUHU216HW,2013-04-04 01:38:00,
2013-04-03 20:44:00,47.1,44.6,30.05,North,0,0.0,0.0,91,0.00,,,0.51,WUHU216HW,2013-04-04 01:44:00,
2013-04-03 20:49:00,46.9,44.5,30.06,North,0,0.0,0.0,91,0.00,,,0.51,WUHU216HW,2013-04-04 01:49:00,
2013-04-03 20:54:00,46.9,44.5,30.06,North,0,0.0,0.0,91,0.00,,,0.51,WUHU216HW,2013-04-04 01:54:00,
2013-04-03 20:59:00,46.9,44.5,30.05,North,0,0.0,0.0,91,0.00,,,0.51,WUHU216HW,2013-04-04 01:59:00,
2013-04-03 21:04:00,47.1,44.6,30.05,North,0,0.0,0.0,91,0.00,,,0.51,WUHU216HW,2013-04-04 02:04:00,
2013-04-03 21:09:00,47.1,44.6,30.06,North,0,0.0,0.0,91,0.00,,,0.51,WUHU216HW,2013-04-04 02:09:00,
2013-04-03 21:14:00,47.1,44.6,30.06,North,0,0.0,0.0,91,0.00,,,0.51,WUHU216HW,2013-04-04 02:14:00,
2013-04-03 21:20:00,46.9,44.5,30.07,North,0,0.0,0.0,91,0.00,,,0.51,WUHU216HW,2013-04-04 02:20:00,
2013-04-03 21:25:00,46.9,44.5,30.07,North,0,0.0,0.0,91,0.00,,,0.51,WUHU216HW,2013-04-04 02:25:00,
2013-04-03 21:32:00,46.9,44.5,30.07,North,0,0.0,0.0,91,0.00,,,0.51,WUHU216HW,2013-04-04 02:32:00,
2013-04-03 21:37:00,46.5,44.1,30.07,North,0,0.0,0.0,91,0.00,,,0.51,WUHU216HW,2013-04-04 02:37:00,
2013-04-03 21:42:00,46.5,44.1,30.08,North,0,0.0,0.0,91,0.00,,,0.51,WUHU216HW,2013-04-04 02:42:00,
2013-04-03 21:48:00,46.4,43.9,30.08,North,0,0.0,0.0,91,0.00,,,0.51,WUHU216HW,2013-04-04 02:48:00,
2013-04-03 21:54:00,46.4,43.9,30.08,North,0,0.0,0.0,91,0.00,,,0.51,WUHU216HW,2013-04-04 02:54:00,
2013-04-03 21:59:00,46.2,43.7,30.08,North,0,0.0,0.0,91,0.00,,,0.51,WUHU216HW,2013-04-04 02:59:00,
2013-04-03 22:04:00,46.2,43.7,30.08,North,0,0.0,0.0,91,0.00,,,0.51,WUHU216HW,2013-04-04 03:04:00,
2013-04-03 22:09:00,46.2,43.7,30.09,North,0,0.0,0.0,91,0.00,,,0.51,WUHU216HW,2013-04-04 03:09:00,
2013-04-03 22:14:00,46.2,43.7,30.09,North,0,0.0,0.0,91,0.00,,,0.51,WUHU216HW,2013-04-04 03:14:00,
2013-04-03 22:19:00,46.0,43.6,30.09,North,0,0.0,0.0,91,0.00,,,0.51,WUHU216HW,2013-04-04 03:19:00,
2013-04-03 22:24:00,46.0,43.6,30.09,North,0,0.0,0.0,91,0.00,,,0.51,WUHU216HW,2013-04-04 03:24:00,
2013-04-03 22:29:00,46.0,43.6,30.10,North,0,0.0,0.0,91,0.00,,,0.51,WUHU216HW,2013-04-04 03:29:00,
2013-04-03 22:34:00,46.0,43.6,30.10,North,0,0.0,0.0,91,0.00,,,0.51,WUHU216HW,2013-04-04 03:34:00,
2013-04-03 22:39:00,46.0,43.6,30.10,North,0,0.0,0.0,91,0.00,,,0.51,WUHU216HW,2013-04-04 03:39:00,
2013-04-03 22:45:00,46.0,43.6,30.10,North,0,0.0,0.0,91,0.00,,,0.51,WUHU216HW,2013-04-04 03:45:00,
2013-04-03 22:50:00,46.0,43.6,30.10,North,0,0.0,0.0,91,0.00,,,0.51,WUHU216HW,2013-04-04 03:50:00,
2013-04-03 22:55:00,46.0,43.6,30.10,North,0,0.0,0.0,91,0.00,,,0.51,WUHU216HW,2013-04-04 03:55:00,
2013-04-03 23:00:00,46.0,43.6,30.10,North,0,0.0,0.0,91,0.00,,,0.51,WUHU216HW,2013-04-04 04:00:00,
2013-04-03 23:05:00,46.0,43.6,30.10,North,0,0.0,0.0,91,0.00,,,0.51,WUHU216HW,2013-04-04 04:05:00,
2013-04-03 23:10:00,46.0,43.6,30.10,North,0,0.0,0.0,91,0.00,,,0.51,WUHU216HW,2013-04-04 04:10:00,
2013-04-03 23:15:00,46.0,43.6,30.10,North,0,0.0,0.0,91,0.00,,,0.51,WUHU216HW,2013-04-04 04:15:00,
2013-04-03 23:20:00,46.0,43.6,30.10,North,0,0.0,0.0,91,0.00,,,0.51,WUHU216HW,2013-04-04 04:20:00,
2013-04-03 23:25:00,45.8,43.4,30.10,North,0,0.0,0.0,91,0.00,,,0.51,WUHU216HW,2013-04-04 04:25:00,
2013-04-03 23:30:00,45.6,43.2,30.10,North,0,0.0,0.0,91,0.00,,,0.51,WUHU216HW,2013-04-04 04:30:00,
2013-04-03 23:38:00,45.6,43.2,30.10,North,0,0.0,0.0,91,0.00,,,0.51,WUHU216HW,2013-04-04 04:38:00,
2013-04-03 23:48:00,45.5,43.0,30.10,North,0,0.0,0.0,91,0.00,,,0.51,WUHU216HW,2013-04-04 04:48:00,
2013-04-03 23:53:00,45.5,43.0,30.10,North,0,0.0,0.0,91,0.00,,,0.51,WUHU216HW,2013-04-04 04:53:00,
2013-04-03 23:59:00,45.6,43.2,30.10,North,0,0.0,0.0,91,0.00,,,0.51,WUHU216HW,2013-04-04 04:59:00,